When you browse on this site, cookies collect data to enhance your experience and personalize the content and advertising you see.
Visit our Privacy Policy to learn more. By continuing to use the site, you agree to this use of cookies and data.
  • In Deutschland
  • Länderverzeichnis
  • Für 7 Tage
  • Wassertemperatur
  • Satellitenkarten
  • Wetterkarte
  • Widgets
  • user-avatar
    Anmelden

    Stündliche Wetter Shkoder

    Heute, 23 März, Samstag

    Zeit Temperatur Niederschläge Wind Luftdruck Luftfeuchtigkeit
    00:00 +10°C° 0 mm 4 m/S 746 mmHg 51%
    01:00 +10°C° 0 mm 4 m/S 746 mmHg 52%
    02:00 +8°C° 0 mm 4 m/S 745 mmHg 53%
    03:00 +8°C° 0 mm 4 m/S 745 mmHg 55%
    04:00 +8°C° 0 mm 4 m/S 745 mmHg 56%
    05:00 +8°C° 0 mm 4 m/S 745 mmHg 56%
    06:00 +10°C° 0 mm 4 m/S 745 mmHg 57%
    07:00 +10°C° 0 mm 4 m/S 745 mmHg 57%
    08:00 +12°C° 0 mm 3 m/S 745 mmHg 52%
    09:00 +16°C° 0 mm 3 m/S 745 mmHg 46%
    10:00 +18°C° 0 mm 3 m/S 744 mmHg 40%
    11:00 +19°C° 0 mm 3 m/S 744 mmHg 38%
    12:00 +20°C° 0 mm 2 m/S 744 mmHg 36%
    13:00 +21°C° 0 mm 2 m/S 744 mmHg 34%
    14:00 +21°C° 0 mm 2 m/S 743 mmHg 35%
    15:00 +20°C° 0 mm 2 m/S 743 mmHg 36%
    16:00 +20°C° 0 mm 2 m/S 743 mmHg 38%
    17:00 +19°C° 0 mm 2 m/S 743 mmHg 44%
    18:00 +17°C° 0 mm 2 m/S 743 mmHg 50%
    19:00 +14°C° 0 mm 3 m/S 743 mmHg 56%
    20:00 +14°C° 0 mm 3 m/S 744 mmHg 58%
    21:00 +13°C° 0 mm 3 m/S 744 mmHg 61%
    22:00 +12°C° 0 mm 3 m/S 744 mmHg 64%
    23:00 +12°C° 0 mm 3 m/S 744 mmHg 66%

    Morgen, 24 März, Sonntag

    Zeit Temperatur Niederschläge Wind Luftdruck Luftfeuchtigkeit
    00:00 +11°C° 0 mm 3 m/S 744 mmHg 68%
    01:00 +11°C° 0 mm 3 m/S 744 mmHg 70%
    02:00 +11°C° 0 mm 3 m/S 744 mmHg 68%
    03:00 +10°C° 0 mm 3 m/S 744 mmHg 67%
    04:00 +10°C° 0 mm 3 m/S 744 mmHg 65%
    05:00 +10°C° 0 mm 3 m/S 744 mmHg 63%
    06:00 +11°C° 0 mm 3 m/S 744 mmHg 61%
    07:00 +11°C° 0 mm 3 m/S 744 mmHg 59%
    08:00 +13°C° 0 mm 3 m/S 744 mmHg 51%
    09:00 +16°C° 0 mm 3 m/S 744 mmHg 44%
    10:00 +18°C° 0 mm 2 m/S 744 mmHg 36%
    11:00 +19°C° 0 mm 2 m/S 743 mmHg 34%
    12:00 +20°C° 0 mm 2 m/S 743 mmHg 32%
    13:00 +22°C° 0 mm 1 m/S 743 mmHg 30%
    14:00 +22°C° 0 mm 1 m/S 743 mmHg 32%
    15:00 +21°C° 0 mm 2 m/S 742 mmHg 34%
    16:00 +20°C° 0 mm 2 m/S 742 mmHg 36%
    17:00 +18°C° 0 mm 2 m/S 742 mmHg 42%
    18:00 +18°C° 0 mm 1 m/S 742 mmHg 49%
    19:00 +15°C° 0 mm 1 m/S 742 mmHg 55%
    20:00 +14°C° 0 mm 1 m/S 742 mmHg 55%
    21:00 +14°C° 0 mm 1 m/S 742 mmHg 54%
    22:00 +14°C° 0 mm 1 m/S 742 mmHg 53%
    23:00 +13°C° 0 mm 1 m/S 742 mmHg 54%

    übermorgen, 25 März, Montag

    Zeit Temperatur Niederschläge Wind Luftdruck Luftfeuchtigkeit
    00:00 +13°C° 0 mm 1 m/S 742 mmHg 54%
    01:00 +13°C° 0 mm 1 m/S 741 mmHg 54%
    02:00 +12°C° 0 mm 1 m/S 741 mmHg 55%
    03:00 +12°C° 0 mm 1 m/S 741 mmHg 56%
    04:00 +11°C° 0 mm 1 m/S 740 mmHg 57%
    05:00 +12°C° 0 mm 1 m/S 740 mmHg 58%
    06:00 +13°C° 0 mm 1 m/S 740 mmHg 58%
    07:00 +13°C° 0 mm 1 m/S 740 mmHg 59%
    08:00 +15°C° 0 mm 1 m/S 740 mmHg 55%
    09:00 +16°C° 0 mm 1 m/S 740 mmHg 51%
    10:00 +18°C° 0 mm 2 m/S 739 mmHg 47%
    11:00 +18°C° 0 mm 2 m/S 739 mmHg 47%
    12:00 +18°C° 0 mm 2 m/S 738 mmHg 47%
    13:00 +19°C° 0 mm 3 m/S 738 mmHg 46%
    14:00 +18°C° 0 mm 3 m/S 737 mmHg 48%
    15:00 +18°C° 0 mm 3 m/S 737 mmHg 51%
    16:00 +17°C° 0 mm 2 m/S 736 mmHg 53%
    17:00 +16°C° 0 mm 2 m/S 736 mmHg 61%
    18:00 +14°C° 0 mm 1 m/S 736 mmHg 69%
    19:00 +12°C° 0 mm 0 m/S 736 mmHg 77%
    20:00 +12°C° 0 mm 1 m/S 736 mmHg 79%
    21:00 +12°C° 0 mm 1 m/S 736 mmHg 80%
    22:00 +11°C° 0 mm 1 m/S 736 mmHg 81%
    23:00 +11°C° 0 mm 1 m/S 737 mmHg 80%

    26 März, Dienstag

    Zeit Temperatur Niederschläge Wind Luftdruck Luftfeuchtigkeit
    00:00 +11°C° 0 mm 1 m/S 737 mmHg 79%
    01:00 +10°C° 0 mm 1 m/S 737 mmHg 78%
    02:00 +10°C° 0 mm 1 m/S 737 mmHg 77%
    03:00 +10°C° 0 mm 1 m/S 737 mmHg 76%
    04:00 +10°C° 0 mm 1 m/S 737 mmHg 74%
    05:00 +10°C° 0 mm 2 m/S 738 mmHg 72%
    06:00 +10°C° 0 mm 3 m/S 738 mmHg 71%
    07:00 +11°C° 0 mm 3 m/S 738 mmHg 69%
    08:00 +11°C° 0 mm 4 m/S 739 mmHg 63%
    09:00 +12°C° 0 mm 4 m/S 739 mmHg 58%
    10:00 +13°C° 0 mm 5 m/S 739 mmHg 52%
    11:00 +14°C° 0 mm 5 m/S 739 mmHg 50%
    12:00 +14°C° 0 mm 5 m/S 739 mmHg 47%
    13:00 +15°C° 0 mm 5 m/S 739 mmHg 45%
    14:00 +14°C° 0 mm 5 m/S 740 mmHg 47%
    15:00 +13°C° 0 mm 6 m/S 740 mmHg 48%
    16:00 +11°C° 0 mm 6 m/S 740 mmHg 49%
    17:00 +10°C° 0.1 mm 6 m/S 740 mmHg 51%
    18:00 +9°C° 0.1 mm 6 m/S 741 mmHg 53%
    19:00 +8°C° 0.1 mm 6 m/S 741 mmHg 55%
    20:00 +8°C° 0.1 mm 6 m/S 742 mmHg 56%
    21:00 +7°C° 0.1 mm 6 m/S 742 mmHg 58%
    22:00 +7°C° 0.1 mm 6 m/S 742 mmHg 60%
    23:00 +7°C° 0 mm 6 m/S 743 mmHg 60%

    27 März, Mittwoch

    Zeit Temperatur Niederschläge Wind Luftdruck Luftfeuchtigkeit
    00:00 +6°C° 0 mm 5 m/S 743 mmHg 60%
    01:00 +6°C° 0 mm 5 m/S 743 mmHg 60%
    02:00 +6°C° 0 mm 5 m/S 743 mmHg 60%
    03:00 +6°C° 0 mm 5 m/S 743 mmHg 60%
    04:00 +5°C° 0 mm 5 m/S 743 mmHg 60%
    05:00 +6°C° 0 mm 5 m/S 743 mmHg 58%
    06:00 +6°C° 0 mm 5 m/S 743 mmHg 57%
    07:00 +6°C° 0 mm 5 m/S 743 mmHg 55%
    08:00 +7°C° 0 mm 5 m/S 743 mmHg 53%
    09:00 +8°C° 0 mm 5 m/S 743 mmHg 51%
    10:00 +9°C° 0 mm 5 m/S 743 mmHg 49%
    11:00 +10°C° 0 mm 5 m/S 743 mmHg 49%
    12:00 +10°C° 0 mm 5 m/S 743 mmHg 48%
    13:00 +12°C° 0 mm 5 m/S 743 mmHg 48%
    14:00 +12°C° 0 mm 4 m/S 743 mmHg 48%
    15:00 +12°C° 0 mm 4 m/S 742 mmHg 49%
    16:00 +12°C° 0 mm 4 m/S 742 mmHg 50%
    17:00 +11°C° 0 mm 4 m/S 743 mmHg 53%
    18:00 +10°C° 0 mm 4 m/S 743 mmHg 57%
    19:00 +7°C° 0 mm 4 m/S 743 mmHg 61%
    20:00 +7°C° 0 mm 4 m/S 743 mmHg 62%
    21:00 +7°C° 0 mm 4 m/S 744 mmHg 63%
    22:00 +6°C° 0 mm 4 m/S 744 mmHg 65%
    23:00 +6°C° 0 mm 4 m/S 744 mmHg 64%

    28 März, Donnerstag

    Zeit Temperatur Niederschläge Wind Luftdruck Luftfeuchtigkeit
    00:00 +6°C° 0 mm 4 m/S 744 mmHg 64%
    01:00 +5°C° 0 mm 4 m/S 744 mmHg 64%
    02:00 +5°C° 0 mm 4 m/S 744 mmHg 64%
    03:00 +5°C° 0 mm 4 m/S 744 mmHg 63%
    04:00 +5°C° 0 mm 4 m/S 744 mmHg 63%
    05:00 +5°C° 0 mm 4 m/S 744 mmHg 61%
    06:00 +6°C° 0 mm 4 m/S 744 mmHg 59%
    07:00 +6°C° 0 mm 5 m/S 745 mmHg 57%
    08:00 +7°C° 0 mm 5 m/S 745 mmHg 54%
    09:00 +9°C° 0 mm 5 m/S 745 mmHg 50%
    10:00 +10°C° 0 mm 5 m/S 745 mmHg 47%
    11:00 +12°C° 0 mm 5 m/S 745 mmHg 46%
    12:00 +12°C° 0 mm 5 m/S 745 mmHg 46%
    13:00 +13°C° 0 mm 4 m/S 745 mmHg 45%
    14:00 +13°C° 0 mm 4 m/S 745 mmHg 47%
    15:00 +12°C° 0 mm 4 m/S 745 mmHg 49%
    16:00 +12°C° 0 mm 4 m/S 745 mmHg 51%
    17:00 +11°C° 0 mm 4 m/S 745 mmHg 55%
    18:00 +10°C° 0 mm 4 m/S 745 mmHg 60%
    19:00 +8°C° 0 mm 4 m/S 746 mmHg 64%
    20:00 +7°C° 0 mm 4 m/S 746 mmHg 65%
    21:00 +7°C° 0 mm 4 m/S 746 mmHg 66%
    22:00 +7°C° 0 mm 4 m/S 746 mmHg 66%
    23:00 +7°C° 0 mm 4 m/S 747 mmHg 65%
    Mehr zeigen